Vertical_Velocity
-1 -1 -2 -0 -12 -6 -1 -4 -0 -0 -3 4 8 -4 -5 -0 -3 -7 4 6 2 -2 0 1 0 3 0 -2 -1 -1 1 1 -0 1 1 -1 -1 -0 -1 -1 -1 -0 -1 1 1 0 1 1 0
1 -0 -1 -1 -8 -1 -5 -2 -1 0 0 4 -3 1 -2 1 -1 -2 -1 3 2 -0 1 0 1 3 1 1 1 -1 -1 -1 0 1 1 0 -0 1 -0 -2 -1 -1 -1 0 2 1 0 -1 0
-0 0 -1 -4 -1 -3 -4 -1 1 -1 -0 0 1 -4 4 -1 -2 -3 3 -2 -4 1 4 3 -0 3 0 -0 -1 -1 -1 -0 -1 -2 -1 1 -2 -1 -1 -2 -0 -1 -1 -3 1 0 -1 -0 -1
-1 -0 -1 -6 -2 -7 -3 2 2 -2 -3 2 2 -0 -3 5 -1 -4 -1 1 -1 -2 1 4 2 1 1 -0 -3 -1 -1 -1 -0 -1 -2 -0 -1 -1 -0 -2 -2 -0 0 -1 -2 -1 1 1 -0
-1 0 -2 0 -3 -1 -0 1 0 -0 -1 1 -2 0 0 5 5 3 -4 0 -1 -1 1 3 3 2 -0 1 -1 -2 -1 -0 0 0 0 0 -1 -1 -2 -2 -2 -1 -1 1 -1 -1 -1 -0 -1
-2 -1 -3 -0 -2 0 -0 -3 2 0 -2 -0 -0 -0 -1 0 -1 -1 -0 -3 6 1 2 1 4 1 1 0 0 -0 0 0 -0 -0 -1 -2 -0 1 -1 -1 -1 -2 1 -0 -2 -0 -1 -1 -1
-7 -3 -2 -0 -1 -1 -3 -2 1 -1 -1 0 -0 -2 -1 5 9 1 3 2 -3 5 4 0 1 1 1 -0 -0 -0 -0 -1 0 -0 -2 0 0 -1 -0 -1 1 1 -0 -2 0 0 -1 -1 0
-4 -6 1 -1 -1 -6 -2 -1 1 3 -7 3 -2 -2 -4 3 20 6 6 4 5 2 6 -2 -3 1 -1 -2 0 -0 -1 -2 -1 1 1 -1 1 3 3 1 1 1 1 0 -0 -0 2 1 -0
1 -6 -0 -3 -1 -6 0 -0 -1 1 2 8 1 -8 -1 -11 -3 10 -2 2 9 3 3 2 -3 -1 1 -0 0 3 3 -0 2 -2 1 -2 -3 -1 0 2 2 1 0 -1 -1 -0 0 -0 -2
-5 -2 -6 -4 -2 -1 -2 2 1 0 0 2 -2 7 -5 3 3 1 2 -6 -2 -0 1 4 1 -3 0 1 -0 3 2 -3 -1 2 -0 1 -3 -3 -1 0 1 1 1 -2 -0 0 -2 -1 -2
1 -5 -2 -2 -0 0 0 -2 4 1 -2 -2 -1 -3 3 -2 -1 -14 -6 8 10 2 5 1 3 1 -2 -3 -0 -1 1 -3 2 1 0 3 -2 -2 -0 1 1 -1 -1 -4 -1 -0 -1 -1 -1
-1 -1 -0 -0 -1 0 -0 1 -1 4 -13 -7 5 3 5 4 -2 0 -4 -15 -8 -4 -2 6 4 -1 1 -0 1 -2 -2 -2 -3 -1 1 -0 -1 -0 -2 0 -0 0 1 -3 -0 0 -2 -1 -1
1 -1 1 -1 0 -1 2 -3 -4 -5 0 -6 14 3 2 9 10 9 12 3 2 2 -5 -3 1 -0 -0 -1 -1 -0 -2 -0 -2 -2 0 -0 -2 -2 -2 -0 2 1 1 -1 -2 2 -0 -0 -1
1 0 -3 -1 -2 -1 4 -5 11 -1 3 -6 10 -3 1 3 -6 9 -1 -4 -8 -0 3 1 -1 0 -0 1 1 -0 0 1 -2 -1 -1 1 1 -3 -0 1 2 -2 3 -1 -1 -1 -0 0 -0
1 -3 -3 -0 -1 -3 3 -8 -2 -10 1 -4 4 -4 4 -9 18 -15 -9 -6 1 9 7 16 6 3 -2 1 2 1 2 2 -4 -1 0 1 -0 -1 -0 -0 2 -1 -1 2 2 1 3 -0 -0
-2 -0 -2 -5 0 -2 -6 -21 3 -1 1 -3 3 3 -1 2 -8 22 10 13 6 -2 -2 -1 8 8 -1 3 0 2 0 0 -0 2 -0 3 1 1 -0 -2 1 1 -1 2 3 0 -1 -0 2
-2 -2 1 -6 -0 -0 -1 -7 -3 2 2 -4 -2 1 -1 4 5 -2 3 1 -2 3 -9 -7 -0 7 5 1 2 3 4 -1 -0 3 -2 1 0 3 2 -3 0 1 0 0 2 -0 2 -1 2
-3 1 -0 -1 -3 1 -0 -6 -3 -10 4 -2 -2 0 7 -1 -11 -3 -7 2 2 -8 -9 -1 -2 5 9 3 3 4 6 5 -1 1 -1 0 -1 1 3 -2 -2 -3 2 0 1 1 1 4 1
-1 2 0 0 -3 2 -1 -1 -3 -4 2 -1 -5 1 -1 -3 0 12 4 5 7 9 5 -21 -18 2 5 4 -2 3 -7 2 -2 -0 2 2 0 2 -1 1 2 1 0 2 5 0 2 -2 3
2 2 -7 -4 -1 10 -2 -9 -4 -0 -5 -1 -3 0 -3 2 4 -2 4 2 0 0 15 -22 -17 -3 -3 15 -1 1 -1 6 -1 -3 -1 2 -1 2 -0 -1 0 1 -0 0 2 -1 -5 0 4
-1 0 -2 -1 -2 -1 3 -8 -2 -6 1 -1 -1 -2 -1 -2 -5 2 4 -7 4 -2 -1 16 7 -9 1 4 10 8 14 13 6 4 3 2 4 1 1 -1 0 -0 4 -2 -2 -1 1 -8 1
6 -4 1 2 6 -4 -6 -10 -1 -1 -2 1 -2 0 -4 -5 3 13 -0 9 1 -6 -1 8 -0 -28 17 -7 -1 -10 -0 2 1 -2 1 -0 7 1 4 -2 1 1 1 -1 -1 1 1 -0 -4
-16 3 0 1 2 5 -4 6 -7 2 -1 -3 -2 -2 -3 -3 -3 -4 -3 -5 1 11 -4 20 6 -7 21 2 -1 5 1 6 -4 3 2 1 3 2 3 -1 1 -1 1 2 -1 -2 1 0 -0
-2 -1 -1 1 0 5 -10 0 -13 -2 -7 -2 -1 -4 -4 0 -2 3 -2 13 7 0 4 41 18 -30 -1 6 -5 4 -2 -5 1 4 2 -1 2 -1 4 -0 1 0 1 -3 -0 4 2 -3 3
8 3 1 3 7 -6 -2 7 -26 -2 -1 -3 -3 -3 -3 1 2 2 -1 -4 -9 -5 -6 -15 -6 34 1 -4 -0 2 -1 3 -4 -3 -2 -1 -1 -5 -2 -2 -4 -3 -1 2 3 0 4 -2 -1
-5 -8 -5 -4 -1 -9 1 -1 -26 -1 2 2 2 1 -1 0 1 -4 0 -1 -12 0 -5 -8 -8 -16 11 -8 7 4 1 2 -0 -1 -2 -1 -2 -1 2 -0 -1 -2 -3 1 2 3 5 4 -1
-1 7 -18 1 1 4 -4 2 -2 -3 -4 -4 -2 -2 -2 -1 1 -10 0 9 -8 8 -12 -11 1 -1 -32 -8 16 1 5 -1 0 -5 3 3 2 3 2 2 1 -1 -2 1 2 0 1 6 1
-11 -8 7 4 1 0 1 0 2 -4 -4 -4 -4 -2 -4 -4 8 1 2 7 -8 3 5 9 9 -14 -10 -1 4 -2 1 0 1 2 -1 4 3 -0 2 1 2 -0 0 2 -0 5 2 3 -1
4 3 2 -7 -4 2 -1 5 6 3 2 1 -2 -1 0 -6 4 -2 5 3 1 14 7 6 13 11 1 6 1 1 8 -7 5 1 3 2 1 -3 0 -0 -2 -1 1 -1 -2 3 4 3 0
-0 -3 -1 -7 5 -1 -3 4 2 3 2 3 -1 1 1 -1 2 -7 2 3 0 -1 2 -1 -5 4 20 8 -1 6 -1 1 -1 -0 0 -0 0 -1 1 2 -3 -1 -1 -1 -2 2 -2 -0 -2
Height
1505 1505 1506 1505 1516 1519 1520 1510 1499 1498 1498 1494 1491 1492 1497 1501 1502 1514 1500 1506 1511 1515 1520 1525 1529 1533 1535 1538 1540 1543 1545 1547 1549 1551 1552 1554 1556 1557 1558 1560 1561 1562 1562 1563 1563 1563 1564 1564 1564
1502 1504 1505 1505 1524 1530 1521 1503 1500 1499 1498 1496 1496 1498 1496 1501 1500 1501 1503 1509 1514 1516 1520 1525 1530 1533 1535 1538 1541 1543 1545 1548 1550 1552 1554 1556 1558 1560 1561 1563 1564 1564 1565 1566 1566 1567 1567 1567 1567
1501 1502 1505 1509 1525 1526 1517 1498 1498 1496 1499 1495 1497 1499 1499 1497 1498 1501 1504 1508 1514 1518 1522 1526 1530 1533 1536 1539 1541 1543 1546 1548 1551 1553 1556 1558 1560 1562 1564 1565 1566 1566 1568 1568 1569 1569 1570 1570 1569
1501 1503 1505 1513 1517 1507 1500 1497 1499 1499 1497 1498 1496 1500 1502 1498 1495 1500 1505 1510 1514 1519 1523 1527 1530 1533 1536 1539 1542 1545 1547 1550 1552 1555 1557 1560 1562 1564 1565 1566 1567 1568 1569 1570 1571 1572 1572 1572 1571
1500 1502 1512 1515 1511 1501 1501 1501 1499 1499 1499 1499 1499 1498 1502 1501 1503 1502 1505 1511 1515 1519 1524 1527 1531 1534 1537 1540 1543 1546 1549 1551 1554 1557 1559 1561 1563 1565 1567 1568 1568 1569 1571 1572 1573 1574 1574 1574 1574
1501 1504 1520 1520 1509 1502 1502 1500 1495 1497 1498 1497 1497 1498 1503 1501 1502 1505 1507 1513 1517 1519 1524 1528 1532 1535 1538 1541 1544 1547 1550 1553 1555 1558 1560 1562 1564 1566 1567 1569 1569 1570 1572 1574 1575 1575 1576 1576 1576
1501 1510 1518 1513 1508 1504 1498 1496 1494 1495 1497 1497 1496 1501 1504 1500 1502 1505 1510 1514 1519 1522 1524 1527 1531 1535 1539 1542 1545 1549 1552 1555 1557 1558 1561 1564 1566 1567 1568 1569 1571 1572 1573 1575 1577 1577 1578 1578 1578
1499 1504 1512 1510 1509 1507 1495 1494 1494 1497 1495 1496 1496 1500 1503 1504 1503 1506 1511 1515 1519 1522 1524 1526 1531 1535 1538 1542 1546 1549 1552 1555 1557 1560 1562 1565 1568 1569 1570 1571 1573 1574 1575 1577 1578 1580 1580 1579 1580
1498 1511 1517 1507 1507 1500 1493 1493 1493 1494 1494 1494 1495 1495 1496 1501 1507 1507 1511 1516 1519 1521 1523 1525 1529 1534 1538 1541 1546 1549 1552 1555 1558 1560 1563 1564 1567 1570 1572 1573 1574 1575 1577 1579 1580 1582 1582 1581 1581
1496 1511 1505 1495 1493 1494 1494 1494 1493 1492 1491 1495 1495 1493 1494 1497 1503 1507 1506 1509 1515 1517 1521 1524 1527 1532 1537 1540 1544 1548 1551 1554 1558 1561 1563 1564 1566 1570 1573 1575 1576 1578 1578 1580 1582 1583 1584 1584 1583
1493 1498 1492 1490 1491 1491 1492 1492 1491 1490 1488 1491 1492 1489 1490 1494 1500 1506 1510 1512 1511 1516 1519 1523 1526 1530 1534 1539 1542 1546 1550 1553 1558 1561 1563 1565 1566 1569 1573 1575 1577 1578 1579 1580 1582 1584 1585 1586 1586
1493 1487 1487 1487 1488 1489 1488 1487 1485 1487 1487 1489 1492 1492 1487 1490 1494 1496 1500 1506 1510 1513 1518 1522 1525 1528 1532 1537 1541 1545 1549 1552 1557 1560 1563 1565 1566 1569 1572 1575 1577 1579 1580 1581 1583 1585 1586 1587 1588
1489 1486 1485 1485 1486 1486 1485 1483 1483 1479 1484 1486 1489 1492 1492 1487 1488 1497 1503 1508 1512 1512 1515 1520 1523 1526 1531 1535 1539 1543 1547 1551 1555 1560 1563 1565 1566 1569 1572 1576 1578 1579 1581 1582 1584 1586 1587 1589 1590
1485 1484 1483 1482 1484 1485 1483 1477 1480 1475 1479 1482 1485 1487 1488 1489 1486 1494 1497 1501 1506 1512 1513 1516 1520 1525 1529 1533 1538 1542 1546 1550 1555 1559 1562 1565 1567 1569 1573 1576 1578 1580 1583 1584 1586 1587 1589 1590 1591
1484 1485 1481 1478 1480 1482 1481 1473 1466 1474 1476 1478 1480 1483 1485 1486 1485 1487 1489 1494 1500 1506 1512 1515 1518 1523 1528 1533 1537 1541 1545 1549 1553 1558 1561 1564 1566 1569 1572 1575 1577 1580 1583 1585 1586 1588 1590 1591 1593
1485 1485 1488 1477 1476 1477 1481 1468 1465 1471 1473 1474 1476 1480 1482 1483 1489 1486 1486 1491 1497 1502 1510 1517 1521 1522 1527 1532 1537 1541 1544 1549 1552 1556 1559 1563 1565 1568 1571 1574 1578 1580 1582 1584 1586 1588 1590 1593 1594
1492 1496 1489 1484 1476 1476 1478 1467 1465 1470 1471 1470 1471 1474 1477 1479 1484 1489 1489 1489 1493 1497 1506 1514 1519 1523 1526 1531 1535 1540 1544 1547 1551 1554 1557 1561 1564 1567 1569 1573 1577 1580 1581 1584 1586 1588 1590 1592 1595
1494 1493 1490 1485 1479 1477 1479 1470 1472 1471 1468 1468 1468 1470 1472 1473 1475 1479 1483 1486 1488 1494 1502 1512 1518 1522 1526 1529 1534 1538 1542 1545 1549 1553 1555 1559 1562 1565 1568 1571 1575 1579 1581 1583 1586 1588 1590 1593 1594
1483 1485 1487 1486 1481 1483 1479 1474 1471 1469 1464 1464 1463 1464 1466 1467 1469 1471 1475 1479 1485 1490 1491 1506 1513 1519 1523 1525 1527 1531 1535 1540 1544 1550 1553 1557 1560 1563 1565 1570 1574 1577 1580 1582 1585 1588 1590 1593 1595
1479 1479 1475 1481 1481 1483 1480 1469 1464 1462 1459 1459 1459 1458 1461 1463 1464 1467 1472 1477 1484 1488 1492 1495 1511 1517 1521 1523 1526 1531 1534 1538 1541 1545 1550 1554 1557 1561 1562 1567 1571 1575 1578 1581 1583 1585 1587 1591 1594
1472 1473 1476 1479 1478 1476 1475 1466 1461 1454 1451 1452 1450 1451 1454 1454 1456 1459 1464 1469 1477 1481 1484 1488 1499 1511 1518 1521 1525 1530 1533 1536 1537 1540 1545 1551 1554 1559 1561 1564 1568 1573 1576 1579 1582 1584 1585 1587 1592
1465 1464 1468 1470 1475 1482 1469 1470 1454 1450 1447 1445 1443 1443 1444 1447 1449 1452 1454 1460 1466 1472 1479 1483 1492 1501 1512 1515 1520 1522 1526 1526 1530 1536 1541 1548 1552 1556 1559 1562 1566 1571 1574 1578 1580 1583 1585 1587 1588
1455 1459 1461 1464 1465 1472 1469 1475 1447 1445 1445 1440 1439 1438 1438 1439 1441 1443 1449 1454 1459 1466 1472 1478 1482 1495 1500 1508 1514 1518 1522 1526 1530 1535 1539 1544 1548 1553 1557 1560 1564 1569 1573 1577 1580 1581 1584 1587 1589
1454 1458 1460 1463 1467 1473 1459 1472 1442 1442 1438 1435 1432 1432 1431 1432 1434 1436 1440 1448 1455 1461 1468 1474 1471 1473 1491 1502 1508 1514 1516 1521 1527 1532 1534 1540 1544 1549 1554 1557 1561 1567 1571 1574 1578 1581 1583 1585 1589
1447 1457 1470 1471 1463 1459 1449 1459 1434 1430 1430 1429 1427 1426 1426 1426 1427 1429 1432 1441 1448 1457 1463 1465 1472 1476 1484 1493 1502 1507 1511 1517 1524 1528 1530 1535 1538 1544 1549 1553 1558 1563 1568 1573 1576 1579 1581 1583 1587
1434 1448 1458 1452 1448 1445 1439 1444 1424 1429 1431 1430 1426 1423 1421 1421 1421 1423 1425 1431 1439 1446 1452 1461 1467 1474 1472 1485 1495 1500 1508 1513 1520 1524 1528 1531 1534 1540 1545 1550 1555 1560 1566 1571 1575 1578 1580 1581 1584
1433 1443 1440 1448 1451 1449 1436 1429 1427 1430 1430 1429 1425 1418 1413 1413 1412 1415 1418 1423 1429 1438 1445 1451 1455 1461 1469 1477 1485 1495 1503 1509 1514 1520 1525 1529 1532 1537 1543 1548 1553 1558 1563 1568 1572 1574 1577 1579 1582
1428 1433 1449 1452 1451 1449 1427 1427 1437 1434 1431 1429 1425 1414 1406 1403 1403 1403 1409 1417 1422 1430 1438 1445 1448 1451 1466 1473 1478 1490 1496 1503 1512 1515 1520 1524 1529 1534 1539 1545 1550 1555 1560 1565 1569 1571 1573 1576 1579
1435 1434 1434 1435 1437 1434 1430 1442 1443 1441 1438 1433 1423 1410 1402 1394 1396 1399 1403 1409 1415 1423 1433 1440 1447 1449 1453 1463 1472 1483 1492 1498 1505 1511 1515 1520 1525 1530 1535 1541 1547 1552 1557 1561 1565 1568 1570 1573 1576
1430 1429 1428 1439 1438 1435 1430 1444 1444 1442 1440 1434 1422 1403 1392 1385 1386 1392 1397 1404 1414 1422 1430 1438 1445 1450 1454 1453 1467 1477 1486 1494 1501 1507 1510 1516 1521 1526 1532 1537 1543 1548 1553 1557 1561 1563 1565 1569 1572